Starlink 32251

operational
NORAD ID: 60940 Int'l Des: 2024-155 Owner: SPXS Country: US Constellation: starlink
LEOCIRCULAR

关于 Starlink 32251

正在加载描述...

实时位置

正在加载3D地球...

即将过境

高度历史

Altitude vs Time

uPlot chart will show altitude changes over time

两行轨道根数

1 60940U 24155S 25306.41721566 .00001834 00000-0 74043-4 0 9992
2 60940 53.1606 0.9257 0001385 89.7509 270.3651 15.30195319 66856
Epoch: Nov 2, 2025 • Age: 30 hours

当前状态

高度 488.1 km
速度 7.62 km/s
星下点 -37.48°S, 43.49°E
发射日期 Aug 31, 2024
运行时间 1.1 years
类型 internet

技术详情

分类 Payload
质量 730.00 kg
干质量 700.00 kg
总质量 730.00 kg
长度 0.30 m
直径 4.10 m
跨度 29.00 m
形状 Box + pan
制造商 SPXS
平台类型 Starlink V2M
阶段状态 In Orbit
所有者/国家 SPXS/US

大型星座

Loading constellations...